World > North America > United States > Ohio > Riverside

Hourly Riverside, OH Regional Weather

Feedback E-mail the Weather

Quick WX

Riverside, OH Weather Maps

°F °C°F °C
Riverside Weather Map
UTC Time: 8/10/2022, 21:10
Your Time:

Riverside, OH Regional Weather

Expires:202208102200;;812405
ASUS41 KCLE 102110
RWRCLE
OHIO REGIONAL WEATHER ROUNDUP
NATIONAL WEATHER SERVICE CLEVELAND, OH
500 PM EDT WED AUG 10 2022

NOTE: "FAIR" INDICATES FEW OR NO CLOUDS BELOW 12,000 FEET WITH NO
SIGNIFICANT WEATHER AND/OR OBSTRUCTIONS TO VISIBILITY.


OHZ042-051>053-060>062-070>072-077>081-102200-
  SOUTHWEST OHIO
  
CITY           SKY/WX    TMP DP  RH WIND       PRES   REMARKS
CINC-COVINGTON CLOUDY    81  70  69 NW9       30.08S                  
CINC-LUNKEN    PTSUNNY   82  69  64 NW7       30.07S                  
HAMILTON       MOSUNNY   82  70  66 N7        30.08S                  
DAYTON         PTSUNNY   79  67  66 NW7       30.10F                  
WRIGHT-PAT AFB MOSUNNY   77  69  76 NE9       30.06F                  
DAYTON GENERAL PTSUNNY   79  68  69 N6        30.08F                  
WILMINGTON     PTSUNNY   78  70  76 N10       30.09R                  
$$


SKY/WX - Weather  TMP - Temperature  DP - Dew Point  RH - Humidity
WIND - Wind Direction/Speed PRES - Barometric Pressure VSB - Visibility
WCI - Wind Chill Index E13G22 Wind - East Wind 13 mph/Gusts of 22 mph

Trending Headlines

Riverside Radar Loop



Riverside Quick Facts


National Two Day Weather Forecast


E-mail the Riverside Weather Forecast

Voice your opinion or tell us about page issues...